{"data":{"norad_id":68083,"intl_designator":"2026-042Q","name":"STARLINK-37065","alt_names":[],"object_type":"PAYLOAD","status":"ACTIVE","operator":null,"country":"US","launch_date":"2026-03-04","launch_site_code":"AFETR","launch_vehicle":null,"mission":null,"orbit_class":"UNKNOWN","rcs_meters":null,"size_class":null,"mass_kg":null,"dimensions":null,"purposes":["comms"],"wikipedia_slug":null,"has_3d_model":false,"image_url":null,"decayed_at":null,"tle_current":{"epoch":"2026-05-25T03:02:21.753888Z","epoch_age_seconds":74282,"freshness":"FRESH","line1":"1 68083U 26042Q   26145.12664067  .00017660  00000+0  53246-3 0  9991","line2":"2 68083  53.1583 183.2913 0001350  96.8682 263.2474 15.34406984 14015","mean_motion":15.34406984,"eccentricity":0.000135,"inclination_deg":53.1583,"raan_deg":183.2913,"arg_perigee_deg":96.8682,"mean_anomaly_deg":263.2474,"bstar":0.00053246,"rev_number":1401,"period_min":93.847330924297,"perigee_km":461.75897173591,"apogee_km":463.60599299615,"semimajor_km":6840.819482366,"source":"CELESTRAK","updated_at":"2026-05-25T13:38:21.820069Z"}}}